User: anonymous   Login
Location: Unspecified
(0.0000°N, 0.0000°E)
Time: 01:32:21
(UTC+00:00)
Language:

MOS 1-B - Orbit

View from above orbital plane
View from above orbital plane
View from above satellite
View from above satellite

Ground track
Ground track

The orbit data is extracted from the following two-line orbital elements,

1 20478U 90013A   18265.51259846 +.00000196 +00000-0 +17873-3 0  9991
2 20478 099.3562 239.5536 0004658 292.6574 067.4094 13.95461862378012
Epoch (UTC): 22 September 2018 12:18:08
Eccentricity: 0.0004658
inclination: 99.3562°
perigee height: 906 km
apogee height: 913 km
right ascension of ascending node: 239.5536°
argument of perigee: 292.6574°
revolutions per day: 13.95461862
mean anomaly at epoch: 67.4094°
orbit number at epoch: 37801

The dashed part of the orbit path shows where the satellite is in the earth's shadow,  

DLR